Location: Newark
(45.8667°N, 9.7333°E)
Time: 21:02:19
(UTC+00:00)

ITAMSAT 1 - Pass Details

Date: 26 February 2020
Orbit: 784 x 796 km, 98.9° (Epoch: 05 April)

Event Time Altitude Azimuth Distance (km) Brightness Sun altitude
Rises 17:23:01 0° 207° (SSW) 3,267 11.4 -4.4°
Reaches altitude 10° 17:26:00 10° 225° (SW) 2,346 11.0 -4.9°
Maximum altitude 17:29:35 19° 269° (W) 1,822 11.0 -5.5°
Drops below altitude 10° 17:33:12 10° 313° (NW) 2,364 10.8 -6.1°
Sets 17:36:15 0° 331° (NNW) 3,301 11.2 -6.6°
